Regional Weather Roundup
Issued by NWS Newport/Morehead, NC

Current Version | Previous Version | Graphics & Text | Print | Product List | Glossary On
Versions: 1 2 3 4 5 6 7 8 9 10 11 12 13 14 15 16 17 18 19 20 21 22 23 24 25 26 27 28 29 30 31 32 33 34 35 36 37 38 39 40 41 42 43 44 45 46 47 48 49 50
000 ASUS42 KMHX 250410 RWRMHX WEATHER ROUNDUP FOR EASTERN NORTH CAROLINA NATIONAL WEATHER SERVICE NEWPORT/MOREHEAD CITY NC 1100 PM EST SAT JAN 24 2015 NOTE: "FAIR" INDICATES FEW OR NO CLOUDS BELOW 12,000 FEET WITH NO SIGNIFICANT WEATHER AND/OR OBSTRUCTIONS TO VISIBILITY NCZ015>017-031-032-045>047-102-103-250500- NORTH COAST CITY SKY/WX TMP DP RH WIND PRES REMARKS EDENTON CLEAR 41 33 73 W6 29.76R ELIZABETH CITY CLEAR 40 32 73 W12 29.74R KITTY HAWK CLEAR 42 39 89 W8 29.72R MANTEO CLEAR 43 36 75 W10 29.74S $$ NCZ045>047-081-094-103-104-250500- CENTRAL COAST CITY SKY/WX TMP DP RH WIND PRES REMARKS FRISCO CLEAR 45 41 86 W16G24 29.77R SWANQUARTER NOT AVBL $$ NCZ095-097-098-100-101-250500- SOUTHERN COAST CITY SKY/WX TMP DP RH WIND PRES REMARKS BEAUFORT CLEAR 46 40 79 W14 29.80R CEDAR ISLAND NOT AVBL JACKSONVILLE CLEAR 42 38 85 W7 29.81R PINEY ISLAND N/A N/A N/A N/A MISG 29.79R WILMINGTON CLEAR 42 40 92 W7 29.83S $$ NCZ011>013-027>030-043-044-078>080-089-090>093-098-250500- COASTAL PLAIN CITY SKY/WX TMP DP RH WIND PRES REMARKS AHOSKIE CLEAR 35 28 74 CALM 29.77R CLINTON CLEAR 36 36 100 CALM 29.82S ELIZABETHTOWN CLEAR 37 37 98 SW3 29.83R GOLDSBORO CLEAR 41 38 88 W7 29.79R GREENVILLE CLEAR 41 32 70 CALM 29.82R HAVELOCK CLEAR 43 39 86 W9 29.81R KENANSVILLE CLEAR 37 36 95 SW3 29.82R KINSTON CLEAR 38 35 87 CALM 29.81R NEW BERN CLEAR 43 37 79 W5 29.81R RICHLANDS CLEAR 37 34 87 SW3 29.82R ROCKY MOUNT CLEAR 35 29 78 SW3 29.80R WASHINGTON CLEAR 39 34 82 W3 29.79R WHITEVILLE CLEAR 40 39 95 CALM 29.85R $$ AMZ130-135-150-152-154-156-158-170-250-252-270-ANZ085-086-088-633-658-670-250500- MARINE OBSERVATIONS STATION/POSITION TIME TEMP WIND PRES WAVE SWELL AIR SEA DIR/SP/G HT/PER HT/PER (UTC) (F) (DEG/KT/KT) (MB) (FT/S) (FT/S) CHESAPEAKE LIGHT 0300 42 260/ 23/ 24 1005.2 64 E VA BEACH 0400 47 53 270/ 23/ 27 1004.4 8/11 5/11 DUCK 0400 43 43 260/ 16/ 19 1005.9 2 E DUCK 0400 43 N/A 4/11 2/11 10 NE DUCK 0400 45 N/A 5/11 3/11 OREGON INLET 0400 43 48 260/ 11/ 16 1007.0 13E OREGON INLT 0400 46 N/A 6/11 3/11 HATTERAS CG 0400 48 57 270/ 19/ 22 1008.2 DIAMOND BUOY 0400 53 71 290/ 25/ 31 1006.9 9/10 5/10 17 S OCRACOKE NOT AVBL CAPE LOOKOUT 0300 49 270/ 17/ 21 1008.4 BEAUFORT LAB 0400 47 51 280/ 6/ 12 1008.0 27 SE WRIGHTSVLE NOT AVBL 5 SE WRIGHTSVLE 0300 49 51 260/ 16/ 19 1009.6 225 S CAPE HAT 0303 64 72 290/ 23/ 29 1009.4 16/11 41 SE CHARLESTON 0400 56 70 290/ 23/ 27 1011.9 8/ 8 3/10 $$

USA.gov is the U.S. government's official web portal to all federal, state and local government web resources and services.